Location: Krasnoyarskiy Pitomnik
(51.1333°N, 71.6167°E)
Time: 21:23:54
(UTC+00:00)

Altair - Pass Details

Date: 16 April 2024
Orbit: 1501 x 1682 km, 47.2° (Epoch: 19 May)

Event Time Altitude Azimuth Distance (km) Brightness Sun altitude
Rises 21:24:37 0° 287° (WNW) 4,794 9.9 -22.1°
Reaches altitude 10° 21:28:07 10° 279° (W) 3,779 9.3 -21.7°
Maximum altitude 21:36:12 33° 220° (SW) 2,375 7.9 -21.0°
Drops below altitude 10° 21:44:04 10° 161° (SSE) 3,666 9.2 -20.2°
Sets 21:47:26 0° 152° (SSE) 4,633 9.8 -19.9°
